Wind_Speed
46 47 47 50 47 40 41 34 30 15 17 14 17 13 16 20 22 22 23 25 29 32 33 35 38 40 41 43 44 47 49 52 54 60 64 69 72 72 70 61 56 50 46
47 43 46 46 47 43 43 28 19 19 15 16 15 16 20 21 21 23 25 28 32 32 35 38 39 39 40 42 44 48 52 56 59 62 68 72 71 64 52 48 46 43 43
44 44 46 43 43 41 29 28 31 18 17 17 17 18 21 21 23 26 28 31 32 34 37 37 38 38 39 43 45 49 54 60 68 67 68 66 56 43 40 42 38 40 40
43 47 47 45 40 35 27 27 13 17 17 17 19 20 21 23 25 28 30 32 34 36 36 36 37 38 40 44 50 54 60 64 65 66 62 52 38 36 37 33 31 33 31
54 53 46 43 41 36 34 14 16 16 15 18 19 22 23 23 25 28 30 33 33 35 34 34 37 41 45 49 53 57 61 66 66 60 49 38 32 31 28 29 28 30 30
64 61 53 41 37 24 16 15 14 14 16 18 21 22 22 25 26 29 31 32 31 32 33 36 40 44 48 52 57 61 67 67 57 47 36 32 29 23 29 28 28 28 22
58 54 39 47 17 17 18 16 13 14 17 20 22 23 24 26 28 28 29 27 28 30 34 39 42 45 50 55 60 65 64 56 47 38 34 30 23 23 24 26 29 34 28
52 40 39 20 21 19 16 12 13 14 19 21 22 24 24 26 27 26 26 25 26 31 35 39 45 47 53 58 64 60 52 45 37 33 29 33 22 26 26 29 33 33 32
37 28 23 21 20 16 13 10 12 17 18 21 23 23 24 25 24 23 23 24 28 33 38 43 48 53 56 59 59 51 45 38 33 28 32 30 23 28 26 24 26 26 26
28 21 17 19 18 15 12 14 15 15 19 20 21 22 21 22 21 20 23 28 31 35 41 46 50 53 58 58 52 43 40 31 28 26 32 26 22 26 22 19 27 26 23
20 20 20 19 16 14 11 11 13 17 18 19 20 19 19 19 18 21 26 29 34 39 44 48 53 56 57 52 47 38 32 25 22 26 27 21 21 23 21 22 29 31 27
19 17 16 15 11 9 10 12 13 14 16 16 17 18 16 16 20 25 29 33 36 42 47 52 55 54 52 45 41 35 29 21 22 25 24 19 18 19 22 25 30 33 28
16 14 11 11 12 11 8 8 11 12 14 17 13 14 15 20 24 27 31 35 40 46 50 54 54 50 45 40 35 30 26 18 22 21 25 18 15 17 23 29 33 30 24
16 14 12 9 5 6 9 9 10 13 13 12 12 14 18 23 26 31 35 40 47 52 56 54 46 42 39 34 31 26 22 15 20 19 20 16 13 15 20 23 27 26 26
16 13 9 6 7 8 9 10 13 10 10 10 13 17 22 26 31 34 41 48 53 54 50 43 40 36 34 32 28 22 18 15 18 16 16 18 12 13 19 21 23 20 22
11 8 6 7 7 7 10 10 8 9 9 11 16 21 25 30 35 41 47 52 52 47 41 39 34 31 31 29 28 20 15 13 13 13 12 15 10 13 17 18 15 17 19
11 9 6 6 6 8 8 7 7 7 10 15 19 24 30 35 41 48 53 54 48 43 37 32 30 30 28 29 28 18 14 10 10 13 9 13 9 10 13 15 15 12 19
7 4 5 6 6 6 5 4 6 9 13 17 23 29 33 40 48 53 56 49 39 35 30 28 29 28 27 27 29 18 13 8 7 10 8 8 10 8 9 13 15 13 15
7 8 6 6 5 4 3 4 7 12 17 24 29 33 39 46 51 52 43 38 35 29 26 24 23 24 24 26 29 19 10 9 7 7 7 6 8 8 6 9 13 14 11
8 8 6 5 4 3 3 6 11 17 23 27 33 39 42 47 49 41 39 38 33 26 24 21 21 22 22 23 27 19 12 8 6 7 7 6 4 9 7 5 8 10 11
9 8 8 7 6 4 5 10 16 21 25 32 35 39 44 47 42 38 39 33 27 25 23 21 21 21 21 21 24 22 12 8 7 6 6 5 4 4 8 5 3 5 8
12 11 9 8 6 4 8 13 18 25 29 32 38 42 44 41 39 37 34 28 24 22 21 20 20 21 20 20 20 24 16 7 6 6 6 5 4 4 3 7 2 1 3
15 12 10 8 6 7 11 16 23 27 31 35 39 41 41 40 37 32 30 25 24 23 21 20 19 20 20 19 18 18 21 11 6 7 7 6 4 3 3 2 5 3 1
13 12 11 7 6 10 15 20 25 26 32 37 39 39 38 37 32 30 28 26 23 22 20 19 19 19 19 18 17 16 14 17 11 3 8 7 5 4 1 3 3 3 1
13 12 9 7 9 15 19 24 23 30 33 35 36 35 36 32 31 30 28 25 23 21 20 19 18 19 18 18 16 15 14 12 14 12 3 7 8 5 4 3 2 2 4
12 10 8 8 13 16 20 22 25 28 31 33 33 33 31 30 29 28 26 24 21 20 20 19 19 19 18 17 16 15 14 13 11 10 13 4 5 7 5 4 3 2 2
Wind_Direction
220 224 228 233 235 244 251 256 271 287 292 311 292 297 297 294 296 303 308 312 316 312 312 313 315 316 317 316 317 318 317 319 318 315 313 310 308 306 307 313 316 321 323
217 221 223 225 230 235 246 249 269 294 301 302 295 293 294 295 302 308 312 312 312 312 314 315 319 320 320 322 322 323 323 320 318 315 311 308 308 312 316 320 325 325 326
212 216 214 216 227 228 236 251 265 290 292 287 288 287 288 296 305 307 309 312 312 316 317 320 322 323 325 325 324 322 322 321 320 316 312 312 319 321 324 325 327 330 329
209 207 210 220 226 231 241 248 267 273 278 278 280 280 286 295 303 308 312 314 314 317 322 323 323 326 326 323 321 323 322 323 323 316 318 324 328 330 328 334 335 334 335
208 202 208 214 204 226 233 237 259 269 271 272 274 279 288 297 304 309 311 311 316 320 323 323 326 326 323 323 325 326 326 331 325 321 326 329 336 330 338 340 348 344 336
207 195 202 197 217 219 209 237 247 266 262 266 272 282 292 299 306 309 308 315 322 323 324 327 325 324 326 329 331 333 336 333 326 329 333 339 340 343 342 349 359 4 358
180 178 188 209 180 199 219 223 256 252 260 269 279 287 294 301 306 306 314 325 322 322 323 326 325 329 331 334 334 341 339 331 333 338 342 345 342 345 349 359 355 359 14
174 163 177 147 185 198 210 234 237 254 263 270 280 287 295 303 304 313 321 319 320 319 324 324 330 331 334 333 336 342 336 333 337 342 343 344 346 351 354 357 358 359 358
141 129 150 170 186 196 198 216 239 250 262 273 279 290 299 302 311 317 317 317 318 321 323 328 329 333 332 334 338 337 334 332 337 340 347 343 348 351 1 3 0 2 358
128 140 162 179 181 186 196 215 236 255 264 275 287 295 302 310 316 314 317 318 323 323 324 327 330 331 332 336 337 335 333 329 337 339 347 342 348 348 6 5 5 6 7
142 169 178 177 178 183 201 226 249 263 275 287 294 301 309 314 313 317 320 323 324 324 328 332 331 332 334 335 332 332 332 329 334 344 348 341 346 352 357 355 0 4 6
173 173 176 177 175 190 224 243 262 277 286 291 303 312 312 309 313 319 323 323 324 327 331 332 332 333 334 328 330 332 334 335 341 349 353 348 347 349 358 1 2 7 10
170 174 172 177 192 213 239 269 279 291 302 312 313 314 310 317 322 323 322 323 327 331 331 331 331 331 328 328 330 332 335 336 344 347 358 346 346 350 5 4 2 4 10
175 176 186 196 213 245 266 299 301 306 311 316 317 315 321 322 323 324 325 329 330 330 329 329 326 323 327 330 331 331 334 332 335 339 350 346 343 349 4 5 5 26 48
180 187 194 212 246 279 305 302 311 311 315 318 319 321 320 325 327 328 330 331 330 328 327 321 320 328 332 334 336 328 329 325 333 342 346 349 347 354 4 11 8 35 70
184 192 220 253 294 294 300 309 312 319 319 316 319 321 326 327 328 329 329 328 329 326 320 319 324 330 337 341 338 331 325 320 331 351 336 348 348 354 4 18 24 46 74
194 216 260 278 277 304 308 312 312 307 312 320 322 324 327 326 327 328 328 331 327 324 322 327 331 334 339 344 343 333 326 316 330 350 339 355 358 357 6 25 40 71 70
212 248 252 269 282 289 286 289 296 311 317 318 323 327 327 327 329 330 331 330 331 331 330 332 337 338 340 342 346 340 329 315 320 343 344 359 21 12 20 23 31 87 75
207 217 234 270 247 239 260 283 302 312 319 326 328 326 325 328 329 332 335 337 334 330 330 335 339 342 342 341 346 347 330 324 322 327 354 360 28 33 40 37 36 43 52
197 213 239 211 198 209 257 298 311 321 329 331 329 328 329 332 335 337 340 343 344 340 337 340 344 345 345 347 352 352 344 332 325 320 335 11 32 40 40 50 35 32 40
213 205 194 188 190 224 280 313 326 333 333 332 330 333 337 338 339 343 345 347 350 347 348 348 348 348 348 351 355 3 351 347 346 336 335 352 26 28 32 35 56 34 33
207 192 185 191 210 263 313 330 333 333 332 333 338 338 340 341 342 345 345 351 351 350 348 348 352 353 351 353 357 3 3 8 1 355 355 356 344 328 360 24 30 41 28
189 184 193 205 242 294 320 327 334 332 337 339 339 340 341 340 341 342 345 348 348 348 345 343 347 351 353 353 357 359 9 10 26 25 17 8 4 328 309 346 8 18 254
185 194 202 221 266 305 321 325 330 332 339 340 339 338 339 338 338 339 341 342 343 345 343 339 342 344 350 354 356 0 0 12 9 53 39 22 16 17 354 305 299 331 354
189 196 211 238 288 312 321 326 328 336 339 337 337 337 337 337 337 336 335 333 335 335 339 340 340 342 344 348 354 357 1 3 7 14 15 29 21 18 22 31 4 311 335
196 206 226 276 307 315 322 329 335 337 335 335 335 334 336 338 339 339 339 339 335 331 332 332 333 336 338 340 345 351 354 0 3 354 8 341 12 21 10 10 24 18 16
Height
5771 5776 5787 5796 5806 5808 5814 5818 5822 5820 5824 5822 5822 5821 5821 5821 5820 5816 5813 5808 5803 5798 5792 5786 5779 5773 5766 5759 5752 5744 5735 5727 5718 5706 5694 5682 5669 5658 5643 5632 5620 5612 5603
5763 5773 5780 5789 5796 5804 5809 5813 5814 5817 5819 5817 5816 5817 5818 5817 5814 5811 5807 5803 5797 5792 5785 5778 5772 5766 5759 5752 5744 5736 5727 5716 5706 5696 5682 5668 5652 5642 5630 5620 5612 5603 5595
5761 5767 5773 5782 5791 5797 5801 5807 5809 5812 5815 5812 5812 5814 5813 5812 5808 5805 5802 5796 5791 5785 5778 5771 5766 5759 5752 5745 5737 5728 5718 5706 5693 5680 5667 5651 5639 5630 5624 5615 5606 5598 5588
5756 5761 5771 5778 5786 5793 5797 5801 5804 5809 5809 5806 5808 5809 5808 5806 5803 5799 5794 5789 5783 5778 5771 5765 5759 5753 5747 5739 5731 5721 5709 5697 5682 5666 5652 5641 5633 5625 5616 5611 5605 5594 5587
5746 5754 5762 5770 5779 5789 5793 5795 5801 5803 5800 5803 5805 5804 5803 5801 5797 5792 5788 5783 5776 5771 5766 5759 5753 5746 5740 5732 5723 5714 5702 5685 5669 5655 5644 5636 5630 5621 5614 5607 5600 5591 5583
5721 5745 5753 5765 5776 5783 5790 5793 5795 5794 5797 5799 5800 5799 5797 5794 5789 5785 5781 5776 5769 5764 5759 5753 5747 5739 5730 5721 5712 5701 5688 5674 5657 5646 5637 5631 5625 5617 5611 5604 5597 5592 5585
5713 5734 5749 5764 5769 5780 5786 5790 5789 5788 5792 5795 5795 5793 5791 5788 5784 5778 5774 5769 5764 5759 5754 5748 5741 5732 5722 5713 5703 5689 5674 5660 5649 5641 5635 5627 5621 5616 5611 5604 5596 5587 5581
5718 5732 5751 5759 5771 5779 5783 5782 5783 5783 5788 5790 5789 5788 5785 5781 5777 5771 5768 5764 5759 5754 5749 5742 5734 5726 5716 5706 5692 5678 5666 5655 5647 5639 5633 5626 5619 5615 5608 5602 5595 5587 5581
5724 5734 5753 5763 5770 5773 5773 5775 5778 5781 5782 5784 5785 5782 5778 5774 5770 5765 5762 5759 5755 5748 5741 5734 5727 5718 5709 5699 5685 5670 5659 5650 5644 5637 5630 5624 5619 5615 5609 5604 5599 5592 5585
5729 5741 5753 5760 5765 5767 5770 5772 5776 5774 5778 5780 5778 5776 5772 5768 5763 5760 5757 5753 5748 5741 5735 5727 5719 5711 5701 5691 5678 5666 5656 5649 5644 5637 5630 5624 5620 5616 5610 5605 5599 5592 5587
5736 5746 5755 5760 5761 5762 5763 5765 5769 5772 5775 5774 5773 5770 5765 5762 5759 5755 5751 5746 5740 5734 5727 5719 5710 5702 5692 5682 5671 5662 5654 5648 5643 5637 5629 5624 5621 5616 5611 5606 5600 5593 5586
5740 5746 5752 5754 5755 5756 5759 5765 5768 5769 5769 5769 5767 5763 5760 5757 5754 5750 5745 5740 5734 5727 5719 5711 5703 5693 5684 5674 5665 5657 5650 5645 5641 5635 5629 5625 5622 5618 5613 5608 5600 5593 5586
5737 5743 5748 5747 5751 5754 5758 5761 5764 5764 5764 5763 5760 5758 5756 5752 5749 5745 5740 5735 5727 5719 5711 5703 5694 5684 5674 5666 5659 5652 5647 5643 5639 5634 5630 5625 5623 5619 5614 5608 5603 5595 5588
5736 5738 5740 5744 5749 5753 5755 5758 5760 5761 5759 5758 5756 5754 5751 5748 5745 5740 5735 5728 5720 5712 5703 5694 5684 5675 5667 5660 5653 5648 5644 5641 5638 5633 5631 5626 5623 5620 5617 5612 5607 5600 5593
5734 5739 5743 5745 5747 5751 5753 5755 5756 5756 5755 5753 5752 5750 5748 5744 5740 5735 5728 5721 5712 5703 5693 5684 5676 5667 5660 5654 5648 5644 5641 5638 5636 5632 5630 5626 5624 5621 5619 5614 5609 5605 5600
5734 5737 5740 5743 5747 5750 5752 5752 5752 5751 5751 5751 5749 5747 5744 5740 5735 5729 5721 5712 5702 5693 5685 5677 5670 5662 5656 5650 5645 5640 5637 5636 5634 5632 5630 5626 5624 5622 5619 5616 5611 5608 5604
5734 5737 5741 5745 5746 5746 5747 5748 5749 5750 5750 5749 5747 5744 5740 5736 5729 5721 5712 5701 5692 5684 5678 5672 5665 5659 5653 5648 5642 5637 5634 5633 5633 5631 5629 5626 5624 5623 5620 5618 5614 5612 5609
5733 5736 5739 5741 5743 5745 5746 5748 5749 5749 5747 5746 5743 5739 5736 5729 5721 5711 5702 5693 5684 5677 5671 5667 5662 5657 5652 5647 5641 5635 5632 5631 5631 5630 5628 5626 5624 5624 5622 5619 5617 5614 5613
5734 5737 5739 5741 5743 5745 5746 5747 5747 5746 5745 5743 5739 5735 5728 5721 5712 5702 5693 5685 5678 5672 5667 5662 5658 5654 5650 5645 5640 5634 5631 5630 5629 5628 5627 5626 5624 5624 5623 5621 5619 5617 5615
5733 5736 5739 5741 5742 5744 5745 5745 5745 5744 5742 5739 5734 5728 5721 5713 5703 5695 5687 5679 5673 5668 5664 5660 5656 5653 5649 5644 5639 5633 5630 5629 5628 5627 5626 5625 5624 5624 5624 5623 5621 5620 5618
5732 5735 5737 5739 5741 5742 5744 5744 5743 5741 5738 5734 5728 5722 5713 5705 5697 5689 5683 5676 5671 5667 5663 5659 5655 5652 5648 5644 5639 5634 5631 5628 5627 5626 5625 5625 5624 5624 5624 5623 5623 5622 5621
5732 5734 5736 5739 5741 5742 5742 5741 5740 5737 5733 5728 5722 5714 5706 5699 5692 5687 5681 5675 5670 5667 5663 5660 5656 5652 5648 5644 5640 5636 5631 5629 5628 5626 5625 5624 5624 5624 5624 5623 5623 5623 5622
5731 5733 5736 5738 5739 5739 5739 5737 5734 5731 5726 5722 5715 5708 5701 5695 5690 5685 5680 5674 5670 5666 5662 5659 5655 5652 5648 5644 5640 5637 5633 5630 5628 5627 5626 5625 5624 5623 5624 5624 5623 5623 5623
5730 5732 5734 5736 5736 5736 5735 5733 5730 5726 5721 5716 5709 5704 5698 5693 5688 5683 5678 5673 5668 5664 5661 5658 5654 5651 5647 5644 5641 5638 5634 5632 5629 5628 5627 5626 5625 5624 5624 5624 5624 5623 5623
5728 5730 5732 5733 5732 5732 5730 5727 5725 5720 5716 5711 5706 5701 5695 5691 5686 5681 5676 5671 5666 5662 5660 5656 5653 5650 5647 5644 5641 5638 5635 5633 5631 5629 5628 5627 5625 5624 5624 5623 5623 5623 5623
5727 5728 5728 5728 5728 5727 5726 5722 5719 5715 5712 5707 5702 5698 5693 5688 5683 5678 5673 5668 5664 5660 5657 5654 5651 5648 5645 5643 5640 5638 5636 5633 5631 5630 5628 5627 5626 5625 5624 5624 5623 5623 5623